This demonstration page uses our WeatherBlox Daily Observations layout. Learn more.

Left ArrowRight Arrow

41.55636, -103.73856

Hourly Observations for December 11, 2020

Temp ( °F °C ) Dew Point ( °F °C ) Humidity (%) Winds ( mph kmh ) Pressure ( in mb ) Visibility ( mi km ) Precip ( " mm )
12:58 am 00:58 Mostly Cloudy 22 -5.3 20 -6.7 90 90 NE 8 13 30.25 1024 10 16 0.00 0.00
1:58 am 01:58 Cloudy 24 -4.7 20 -6.7 86 86 NE 7 11 30.11 1020 10 16 0.00 0.00
2:58 am 02:58 Cloudy 24 -4.7 20 -6.9 85 85 NE 6 9 30.11 1020 10 16 0.00 0.00
3:58 am 03:58 Cloudy with Light Snow 24 -4.6 20 -6.9 84 84 NE 3 6 30.11 1020 10 16 0.00 0.00
4:58 am 04:58 Cloudy with Light Snow 23 -4.9 21 -6.3 90 90 N 3 6 30.10 1019 5 8 0.00 0.00
5:58 am 05:58 Mostly Cloudy with Light Snow 23 -5.2 21 -6.1 93 93 Calm 30.10 1019 10 16 0.00 0.00
6:58 am 06:58 Cloudy with Light Snow 23 -5.2 21 -5.9 95 95 NW 3 6 30.11 1020 4 6 0.00 0.00
7:58 am 07:58 Cloudy with Light Snow 23 -5.1 22 -5.8 95 95 NNW 3 6 30.11 1020 5 8 0.00 0.00
8:58 am 08:58 Mostly Cloudy with Light Snow 24 -4.4 22 -5.7 91 91 N 5 7 30.12 1020 6 10 0.01 0.25
9:58 am 09:58 Mostly Cloudy 25 -3.8 22 -5.7 87 87 N 6 9 30.12 1020 10 16 0.00 0.00
10:58 am 10:58 Mostly Cloudy 26 -3.3 20 -6.6 78 78 N 3 6 30.11 1020 10 16 0.00 0.00
11:58 am 11:58 Mostly Cloudy with Light Snow 27 -2.8 22 -5.7 81 81 N 6 9 30.09 1019 7 11 0.00 0.00
12:58 pm 12:58 Mostly Cloudy with Light Snow 27 -2.8 23 -5.2 84 84 NNW 5 7 30.09 1019 5 8 0.00 0.00
1:58 pm 13:58 Mostly Cloudy with Light Snow 27 -2.7 23 -5 84 84 NNW 6 9 30.09 1019 7 11 0.01 0.25
2:58 pm 14:58 Mostly Cloudy with Light Snow 28 -2.4 23 -5 83 83 NW 5 7 30.08 1019 10 16 0.00 0.00
3:58 pm 15:58 Mostly Cloudy 27 -2.7 23 -5.1 84 84 NW 6 9 30.11 1020 10 16 0.00 0.00
4:58 pm 16:58 Cloudy 26 -3.1 22 -5.4 84 84 WNW 5 7 30.12 1020 10 16 0.00 0.00
5:58 pm 17:58 Cloudy with Light Snow 26 -3.3 24 -4.6 91 91 WNW 6 9 30.15 1021 7 11 0.00 0.00
6:58 pm 18:58 Cloudy with Light Snow 25 -3.8 23 -5 91 91 WNW 6 9 30.17 1022 10 16 0.00 0.00
7:58 pm 19:58 Cloudy with Light Snow Showers 25 -3.9 23 -5.1 91 91 WNW 6 9 30.19 1022 10 16 0.00 0.00
8:58 pm 20:58 Cloudy with Light Snow Showers 24 -4.3 23 -5.2 94 94 Calm 30.15 1021 10 16 0.00 0.00
9:58 pm 21:58 Mostly Cloudy 23 -5.1 22 -5.7 96 96 SE 5 7 30.14 1021 10 16 0.00 0.00
10:58 pm 22:58 Partly Cloudy 18 -7.7 17 -8.5 94 94 S 5 7 30.16 1022 10 16 0.00 0.00
11:58 pm 23:58 Mostly Cloudy 19 -7 18 -8 93 93 SSE 8 13 30.13 1020 10 16 0.00 0.00

Powered by AerisWeather